This demonstration page uses our WeatherBlox Daily Observations layout. Learn more.

38.88101, -77.10428

Hourly Observations for August 3, 2020

Temp ( °F °C ) Dew Point ( °F °C ) Humidity (%) Winds ( mph kmh ) Pressure ( in mb ) Visibility ( mi km ) Precip ( " mm )
12:52 am 00:52 Mostly Cloudy 82 27.8 73 22.8 74 74 SW 6 9 29.96 1015 10 16.0934 0 0
1:52 am 01:52 Cloudy 82 27.8 65 18.3 56 56 NW 7 11 29.98 1015 10 16.0934 0 0
2:52 am 02:52 Cloudy 80 26.7 66 18.9 62 62 NNW 6 9 29.99 1016 10 16.0934 0 0
3:52 am 03:52 Cloudy 81 27.2 64 17.8 57 57 N 3 6 30 1016 10 16.0934 0 0
4:52 am 04:52 Mostly Cloudy 79 26.1 62 16.7 56 56 NNW 6 9 30.01 1016 10 16.0934 0 0
5:52 am 05:52 Mostly Cloudy 78 25.6 62 16.7 58 58 NW 9 15 30.03 1017 10 16.0934 0 0
6:52 am 06:52 Mostly Cloudy 77 25 62 16.7 60 60 NNW 6 9 30.04 1017 10 16.0934 0 0
7:52 am 07:52 Mostly Cloudy 79 26.1 63 17.2 58 58 NNW 7 11 30.05 1018 10 16.0934 0 0
8:52 am 08:52 Mostly Cloudy 81 27.2 64 17.8 57 57 N 6 9 30.07 1018 10 16.0934 0 0
9:52 am 09:52 Mostly Cloudy 83 28.3 65 18.3 55 55 NNW 6 9 30.07 1018 10 16.0934 0 0
10:52 am 10:52 Partly Cloudy 84 28.9 63 17.2 49 49 Calm 30.07 1018 10 16.0934 0 0
11:52 am 11:52 Mostly Cloudy 85 29.4 64 17.8 50 50 SSE 5 7 30.06 1018 10 16.0934 0 0
12:52 pm 12:52 Mostly Cloudy 87 30.6 68 20 53 53 S 10 17 30.06 1018 10 16.0934 0 0
1:52 pm 13:52 Mostly Cloudy 85 29.4 68 20 57 57 S 7 11 30.04 1017 10 16.0934 0 0
2:52 pm 14:52 Mostly Cloudy with Light Rain 84 28.9 70 21.1 63 63 S 6 9 30.03 1017 10 16.0934 0.001 0.001
3:52 pm 15:52 Cloudy 83 28.3 70 21.1 65 65 S 3 6 30.04 1017 10 16.0934 0.001 0.001
4:25 pm 16:25 Cloudy with Light Thunderstorms 82 27.8 72 22.2 72 72 S 3 6 30.04 1017 10 16.0934 0.001 0.001
4:36 pm 16:36 Cloudy with Thunderstorms 77 25 71 21.7 82 82 SE 26 43 30.07 1018 3 4.82802 0.02 0.508
4:38 pm 16:38 Cloudy with Heavy Thunderstorms 76 24.4 71 21.7 85 85 SSE 20 31 30.07 1018 2 3.21868 0.03 0.762
4:41 pm 16:41 Cloudy with Heavy Thunderstorms 75 23.9 71 21.7 88 88 SE 16 26 30.07 1018 1.75 2.816345 0.06 1.524
4:47 pm 16:47 Cloudy with Heavy Thunderstorms 73 23 72 22 94 94 SSE 12 19 30.08 1019 2 3.21868 0.14 3.556
4:52 pm 16:52 Cloudy with Thunderstorms 74 23.3 71 21.7 91 91 S 9 15 30.07 1018 4 6.43736 0.14 3.556
4:54 pm 16:54 Cloudy with Thunderstorms 74 23.3 71 21.7 91 91 SSE 6 9 30.07 1018 4 6.43736 0.01 0.254
4:59 pm 16:59 Cloudy with Heavy Thunderstorms 74 23.3 70 21.1 88 88 SE 5 7 30.06 1018 2.5 4.02335 0.04 1.016
5:06 pm 17:06 Cloudy with Thunderstorms 74 23.3 71 21.7 91 91 ESE 5 7 30.06 1018 3 4.82802 0.06 1.524
5:48 pm 17:48 Cloudy with Rain 73 23 72 22 94 94 SE 3 6 30.06 1018 6 9.65604 0.15 3.81
5:52 pm 17:52 Cloudy with Light Rain 74 23.3 71 21.7 91 91 SSE 3 6 30.06 1018 6 9.65604 0.16 4.064
5:57 pm 17:57 Cloudy with Light Rain 74 23.3 71 21.7 91 91 S 5 7 30.07 1018 8 12.87472 0.01 0.254
6:52 pm 18:52 Cloudy with Light Rain 75 23.9 71 21.7 88 88 SW 6 9 30.06 1018 10 16.0934 0.01 0.254
7:13 pm 19:13 Cloudy with Heavy Rain 74 23.3 71 21.7 91 91 SW 6 9 30.06 1018 4 6.43736 0.03 0.762
7:34 pm 19:34 Cloudy with Light Rain 74 23.3 71 21.7 91 91 S 7 11 30.04 1017 8 12.87472 0.09 2.286
7:52 pm 19:52 Cloudy with Light Rain 74 23.3 71 21.7 91 91 S 7 11 30.02 1017 10 16.0934 0.09 2.286
7:55 pm 19:55 Mostly Cloudy with Light Rain 74 23.3 71 21.7 91 91 VRB 7 11 30.02 1017 10 16.0934 0.001 0.001
8:52 pm 20:52 Cloudy 74 23.3 71 21.7 91 91 S 7 11 30.03 1017 10 16.0934 0.001 0.001
9:52 pm 21:52 Cloudy with Light Rain 74 23.3 72 22.2 94 94 S 7 11 30.03 1017 10 16.0934 0.01 0.254
10:52 pm 22:52 Cloudy with Light Rain 74 23.3 71 21.7 91 91 S 8 13 30.04 1017 10 16.0934 0.01 0.254
11:52 pm 23:52 Cloudy with Light Rain 75 23.9 72 22.2 90 90 SSE 6 9 30.02 1017 10 16.0934 0.02 0.508

Powered by AerisWeather